Temperature
26 26 26 27 28 28 29 29 30 31 32 32 31 31 32 32 32 32 31 31 31 30 29 27 26 23 21 20 20 19 19 18 18 17 17 17 17 16 16 16 16 16 16 15
26 25 27 28 29 29 28 28 29 30 32 32 31 31 31 32 32 31 31 31 31 30 28 26 24 22 20 20 19 18 18 17 17 17 17 17 16 16 16 15 15 15 15 15
26 27 28 28 28 28 28 28 29 29 30 31 30 30 30 31 31 31 31 31 31 30 27 24 22 21 19 18 18 17 17 17 16 16 16 16 16 15 15 15 14 14 14 14
27 28 29 28 28 28 28 29 29 29 28 28 29 28 29 30 31 31 31 31 31 30 27 24 21 19 18 18 17 17 17 16 16 15 15 16 15 15 14 14 14 14 13 12
27 28 28 28 28 29 28 29 29 29 28 27 28 27 29 30 30 31 32 31 31 30 27 23 20 19 17 17 17 16 16 16 15 15 15 14 14 14 13 13 13 12 12 11
28 29 29 29 29 29 29 28 28 28 27 26 27 27 27 30 31 31 32 31 30 29 26 23 20 18 17 16 16 16 15 15 14 14 14 13 13 13 12 12 12 11 11 10
26 28 29 30 28 29 28 26 25 25 25 25 28 27 28 30 31 32 31 30 29 27 24 21 18 17 16 15 15 15 14 14 14 13 13 13 12 12 12 11 11 11 10 9
25 26 28 29 28 27 27 27 25 24 25 27 28 28 29 31 31 31 30 29 28 26 23 20 17 16 15 15 14 14 14 13 13 12 12 12 12 11 11 10 10 10 9 9
26 27 29 29 29 28 27 27 28 26 26 25 26 28 30 30 30 30 30 29 28 25 21 19 16 15 14 14 13 13 13 12 12 12 11 11 10 10 10 10 9 9 8 8
26 26 28 30 29 29 28 28 27 26 24 24 25 27 28 28 29 29 29 28 26 23 20 17 15 14 14 13 12 12 12 11 11 11 10 10 9 9 9 8 8 8 7 7
26 25 26 28 28 27 27 27 26 26 26 25 24 26 28 28 28 28 28 27 25 21 18 16 14 13 13 12 11 11 10 10 10 9 9 9 8 8 7 7 7 7 6 6
25 25 24 26 28 29 28 27 27 25 24 25 25 26 28 28 27 26 26 24 22 20 17 15 14 12 12 11 10 10 9 9 9 8 8 7 7 7 7 6 6 6 6 5
22 23 22 24 26 27 27 27 27 26 25 25 24 25 27 27 25 24 23 21 20 18 16 14 12 11 10 10 9 9 8 8 7 7 7 6 6 6 6 6 5 5 5 5
21 21 22 22 24 24 25 26 26 26 25 24 25 25 25 24 24 23 21 20 18 17 15 13 11 10 9 9 8 8 7 7 7 7 6 6 6 5 5 5 5 5 5 5
21 21 22 23 24 24 24 24 25 24 24 24 24 24 24 22 22 21 20 19 17 16 14 12 11 9 8 8 7 7 7 6 6 6 5 5 5 5 5 5 5 5 5 5
21 20 20 21 23 23 23 24 24 24 24 24 24 23 21 20 19 18 18 17 16 14 13 11 9 8 8 7 7 6 6 6 5 5 5 5 5 5 5 5 5 4 4 4
20 19 19 19 21 22 22 23 24 24 24 23 22 20 19 18 16 15 15 14 14 12 11 9 8 7 7 6 6 5 5 5 5 4 4 4 4 4 4 4 4 4 4 3
18 18 18 19 19 18 21 23 23 22 21 21 20 19 18 16 13 11 11 11 10 10 9 8 7 6 6 5 5 5 4 4 4 4 4 4 4 4 4 4 3 3 3 2
19 17 17 17 18 19 21 20 20 20 19 18 18 17 17 16 13 10 8 8 8 8 7 7 6 5 5 4 4 4 4 4 4 4 4 4 4 4 3 3 3 2 2 2
19 18 17 17 17 17 16 18 19 19 17 15 16 16 16 16 15 9 7 7 7 6 6 5 5 4 4 4 4 4 4 4 4 4 4 4 3 3 3 2 2 1 1 1
16 16 16 16 16 17 15 17 18 16 13 14 14 14 14 12 10 7 6 5 5 5 4 4 4 4 4 4 4 4 4 4 4 4 3 3 3 3 2 1 1 1 1 1
16 16 15 15 15 14 14 15 13 12 12 12 12 12 10 8 6 5 5 4 4 4 4 4 4 4 4 4 4 4 4 3 3 3 3 2 2 2 1 1 1 1 0 0
17 16 15 14 12 11 11 11 11 11 11 11 11 10 8 6 5 5 4 4 4 4 3 4 4 4 4 4 4 4 3 3 3 3 2 2 2 2 1 1 1 0 0 -0
15 16 16 14 12 11 10 9 9 9 8 8 8 8 7 5 4 4 4 3 3 4 4 4 4 4 4 4 4 4 3 3 3 3 3 3 2 2 1 1 1 0 -0 -1
14 15 14 13 12 11 8 8 7 7 7 7 7 6 5 5 4 4 4 4 4 4 4 4 5 4 4 4 4 4 3 3 3 3 3 3 2 2 1 1 0 -0 -1 -1
14 13 12 10 10 9 7 7 6 6 6 6 5 5 5 4 4 4 4 4 5 5 5 5 5 5 5 4 4 4 3 3 3 3 3 3 3 2 2 1 0 -0 -1 -1
Wind_Speed
17 16 18 20 22 21 22 22 21 19 22 22 22 20 18 15 14 15 15 15 14 11 9 9 15 17 14 13 12 10 10 10 9 8 8 7 7 7 7 6 9 9 9 9
17 21 21 20 20 22 23 23 23 18 16 15 15 17 15 17 17 15 16 15 12 10 7 12 16 17 15 13 12 11 10 10 8 7 6 6 7 7 7 6 7 9 9 6
23 20 22 22 21 20 21 20 19 18 18 18 16 18 17 19 23 21 19 18 16 12 10 14 15 15 14 13 12 10 10 9 7 8 7 8 7 7 6 7 5 6 8 8
22 23 16 15 18 19 16 15 16 18 18 17 19 19 19 20 23 25 23 20 18 14 11 15 16 15 13 11 9 9 9 8 7 8 8 10 8 8 7 6 6 6 6 6
20 21 19 16 15 15 15 15 16 17 17 18 20 19 19 18 20 19 20 20 18 14 11 16 17 15 13 12 10 9 10 8 8 6 7 7 6 6 6 7 7 6 5 5
21 19 17 18 16 14 13 14 14 14 14 19 20 21 22 19 20 18 15 13 11 11 11 17 17 16 13 12 11 10 10 8 7 6 5 5 8 8 8 7 6 5 6 4
23 22 19 14 14 15 15 12 10 13 15 19 21 20 19 18 17 12 6 5 4 7 13 18 18 16 14 13 12 10 11 9 7 6 6 7 8 8 7 6 4 3 4 6
21 20 22 18 16 14 16 17 14 13 14 14 12 11 10 8 5 2 1 2 4 9 13 17 17 15 13 13 12 11 10 9 8 7 8 7 7 5 4 3 3 2 4 7
16 19 21 24 21 19 17 17 18 17 19 18 16 17 14 7 7 7 7 7 6 10 14 17 16 14 13 13 12 11 11 9 8 8 7 6 4 5 6 4 2 4 4 4
16 15 15 16 20 23 20 17 11 14 15 17 17 17 11 9 4 3 3 2 2 11 16 18 15 14 12 12 11 11 9 9 8 7 6 6 6 6 5 4 6 6 5 5
10 12 16 11 15 17 17 18 16 14 14 15 15 9 3 7 6 4 3 1 7 14 17 17 16 15 14 14 12 11 10 9 7 6 5 6 5 4 3 4 5 4 3 1
8 8 14 16 14 14 16 17 16 13 15 15 15 13 6 7 9 10 10 7 8 15 18 18 18 17 16 14 12 10 8 7 6 7 7 6 5 4 3 4 4 2 1 2
9 6 11 14 15 14 15 16 16 14 12 13 15 11 3 8 12 14 13 12 9 13 16 17 17 16 15 14 12 10 7 6 6 7 7 6 4 4 5 4 4 3 2 3
5 7 11 15 9 6 10 13 15 15 14 14 15 12 6 8 9 9 9 9 7 11 14 15 15 15 14 13 12 10 8 7 8 8 7 6 5 5 3 3 2 3 4 4
5 10 14 17 18 15 13 13 11 11 12 13 13 13 10 11 9 9 10 8 8 9 12 15 15 14 14 13 12 11 10 9 8 7 6 5 3 1 1 2 3 3 4 5
6 8 13 16 17 18 18 18 16 16 16 17 17 11 12 14 16 16 14 11 8 9 11 14 15 15 14 14 13 12 10 9 8 6 4 2 1 1 1 2 3 4 4 5
5 7 11 15 16 17 20 18 18 16 13 11 9 9 13 15 17 17 15 13 11 11 12 13 13 14 13 13 12 11 9 7 5 2 1 0 1 1 2 3 4 5 5 6
8 9 8 12 13 17 12 6 5 5 6 10 9 11 11 13 15 18 17 14 13 13 14 14 14 15 14 12 11 9 6 4 2 1 0 0 1 2 4 5 6 6 6 6
9 9 8 10 14 15 6 7 7 4 5 12 10 10 9 6 9 14 16 15 14 15 15 14 14 14 12 10 8 6 4 2 2 2 1 2 4 5 7 8 7 7 6 6
9 9 10 11 12 9 4 7 7 5 2 12 11 10 10 10 5 5 10 14 15 15 14 14 13 12 10 7 4 4 3 3 3 4 5 7 7 7 8 7 7 6 5 5
8 9 11 13 13 2 7 9 8 5 4 10 9 9 8 6 8 10 12 14 15 15 14 13 11 9 6 4 4 4 4 4 5 6 7 7 5 5 7 5 4 5 6 5
4 4 6 7 9 1 12 8 7 8 9 9 8 6 10 15 15 15 15 14 15 14 12 10 8 6 4 4 5 6 6 6 6 7 7 7 6 7 6 4 4 5 6 6
4 3 2 3 3 6 10 9 9 9 9 8 7 5 14 16 16 15 15 14 13 12 9 7 7 7 5 5 6 6 5 5 6 6 6 5 5 5 5 5 6 5 6 6
3 5 4 2 8 10 11 11 10 9 8 7 5 8 15 17 17 16 14 12 10 9 8 7 8 8 7 7 7 6 6 6 6 5 3 4 5 5 4 4 6 6 7 8
4 4 4 2 4 7 11 11 10 9 9 9 11 14 16 18 17 15 13 11 9 8 8 8 8 8 9 8 7 7 6 5 5 4 3 4 5 5 4 5 5 6 6 6
5 5 3 3 5 4 5 7 8 9 11 13 16 16 14 15 16 14 12 10 9 9 8 7 8 9 9 9 9 8 7 6 5 5 5 5 5 5 4 4 4 5 4 4
Wind_Direction
207 218 223 224 225 238 250 256 255 247 240 238 229 233 241 246 224 233 238 237 236 223 194 154 139 137 142 146 152 152 155 150 153 153 157 147 139 127 111 106 100 90 84 78
212 222 231 233 233 232 242 256 265 272 271 259 242 236 244 261 257 237 240 250 246 234 166 135 134 143 150 153 154 154 154 155 161 152 146 140 133 122 108 99 97 94 88 78
225 226 223 232 241 239 239 247 259 268 276 276 267 252 247 256 265 260 242 237 246 235 177 149 145 148 152 155 159 160 154 156 158 138 125 117 106 112 117 126 113 100 101 89
231 239 242 226 233 239 243 248 258 265 267 266 265 264 250 244 246 247 244 234 236 239 197 161 155 151 150 149 144 139 137 138 132 129 138 144 153 153 146 138 123 110 102 102
230 232 236 237 237 240 246 251 251 252 256 263 265 268 267 262 254 249 240 228 228 230 199 158 151 147 141 135 131 126 124 125 129 136 148 156 145 128 125 122 129 131 120 115
246 241 231 235 231 233 243 249 257 261 261 258 255 258 263 259 259 258 244 215 212 222 161 143 139 135 131 128 126 126 122 118 122 126 130 132 126 127 130 130 142 156 151 146
243 248 241 232 235 220 222 234 240 239 239 248 248 247 255 257 260 264 238 186 168 143 136 134 134 135 136 135 132 131 126 120 116 112 108 108 112 116 126 136 158 187 155 134
231 233 233 227 227 235 218 224 237 253 260 268 274 260 263 288 287 289 84 133 137 140 136 133 133 135 138 138 136 133 127 121 115 109 105 106 118 133 130 109 137 114 76 102
242 240 223 217 214 224 236 229 236 251 268 277 280 289 292 261 229 221 224 228 209 151 133 130 130 134 139 138 134 132 127 122 117 113 111 111 103 94 99 91 59 85 76 113
254 275 282 230 208 211 227 243 248 250 262 271 279 281 295 326 329 285 245 249 124 127 126 126 127 132 132 127 121 118 118 119 116 116 124 117 99 98 110 107 79 72 68 64
256 267 274 258 211 216 215 228 242 259 263 266 271 274 18 22 11 357 334 350 114 126 127 128 130 127 122 120 121 118 116 114 115 113 99 98 100 103 112 97 98 92 78 75
272 264 263 263 256 235 237 237 234 239 251 261 271 279 338 25 21 20 8 28 96 123 128 129 127 126 125 125 123 120 117 115 111 102 91 85 78 71 69 78 73 71 59 322
334 264 253 256 258 254 246 246 248 249 253 256 262 272 3 39 27 22 26 38 73 107 119 124 126 128 128 127 124 118 112 108 106 101 93 83 75 67 54 54 44 17 348 317
318 280 262 259 272 306 289 276 265 260 256 258 264 285 343 37 12 7 31 45 78 109 122 124 126 126 126 125 121 114 100 88 86 85 85 75 62 53 43 28 2 334 322 311
270 266 266 271 279 280 274 277 281 281 283 287 294 306 352 33 23 25 36 60 88 112 122 126 126 126 124 119 112 103 93 82 78 76 75 70 58 43 19 355 330 325 331 340
222 273 282 275 272 275 274 272 272 271 276 282 287 307 36 41 37 34 34 45 67 90 113 121 121 123 120 116 111 101 91 82 75 71 67 61 7 351 335 324 342 3 12 14
294 274 269 269 271 273 265 270 275 277 294 311 323 27 38 40 40 37 36 41 53 83 100 110 112 113 112 109 106 100 95 89 84 74 57 352 282 320 5 21 40 34 24 24
282 293 287 274 271 260 271 316 321 309 3 16 29 40 42 60 61 50 45 52 61 76 91 98 103 103 102 101 99 100 103 106 105 102 92 7 33 44 61 55 44 36 22 16
231 251 265 270 263 260 262 21 7 337 54 32 28 23 18 47 77 57 50 61 72 83 91 95 98 102 102 102 105 110 116 132 138 138 88 52 48 56 51 45 32 28 15 15
215 224 241 254 261 268 57 16 358 315 120 31 17 3 351 337 325 66 67 77 83 87 93 98 100 101 103 107 116 122 126 120 104 85 70 61 56 58 58 48 32 14 11 16
219 224 235 246 252 252 16 342 323 285 18 6 359 353 359 36 83 104 95 91 93 95 98 101 101 101 110 125 127 116 105 90 82 80 75 65 46 68 78 61 38 15 11 13
259 264 264 266 260 235 16 18 23 3 354 356 354 21 91 103 105 107 104 103 103 103 104 104 103 103 105 111 105 89 81 81 82 80 77 68 48 43 58 54 43 31 13 13
290 356 347 26 76 63 47 42 24 8 1 0 5 81 118 118 115 112 109 108 109 113 115 119 117 112 110 103 98 95 96 97 95 89 85 83 80 72 46 36 38 31 26 19
340 350 322 30 80 71 57 44 35 29 25 24 45 107 119 119 118 115 114 116 122 130 134 134 122 112 103 96 92 90 89 90 88 87 93 103 88 77 68 45 39 39 29 21
327 324 323 356 74 66 49 40 40 46 52 68 83 105 115 118 118 120 123 129 133 133 132 126 115 109 104 98 93 89 86 88 89 78 68 78 75 63 69 69 50 50 61 47
12 8 4 52 56 72 67 54 62 74 84 95 102 104 109 116 122 125 128 131 133 133 132 125 115 107 99 91 83 75 69 60 52 51 43 54 57 54 53 76 97 77 97 145
Height
1474 1477 1475 1470 1467 1467 1464 1462 1458 1451 1443 1445 1448 1451 1450 1451 1454 1457 1459 1460 1463 1465 1468 1472 1474 1478 1483 1489 1494 1499 1504 1507 1509 1512 1515 1518 1521 1523 1524 1525 1527 1529 1530 1531
1470 1470 1463 1460 1458 1459 1462 1463 1459 1449 1440 1441 1445 1448 1448 1449 1450 1453 1455 1457 1459 1462 1465 1468 1470 1475 1480 1486 1491 1496 1501 1504 1507 1510 1512 1514 1517 1519 1520 1521 1522 1524 1526 1528
1464 1456 1454 1456 1456 1457 1457 1459 1458 1455 1447 1443 1448 1453 1450 1449 1449 1448 1449 1452 1455 1459 1462 1465 1468 1473 1477 1484 1489 1494 1498 1502 1505 1507 1509 1511 1514 1515 1516 1518 1518 1519 1522 1524
1455 1449 1446 1448 1452 1452 1458 1452 1454 1456 1459 1458 1454 1463 1449 1444 1442 1441 1442 1445 1449 1454 1457 1461 1465 1470 1476 1481 1487 1491 1495 1499 1502 1504 1506 1507 1510 1511 1513 1515 1515 1516 1518 1520
1449 1444 1445 1448 1448 1448 1452 1449 1450 1453 1457 1461 1457 1462 1451 1438 1436 1432 1431 1436 1442 1448 1453 1457 1463 1469 1474 1479 1484 1489 1492 1496 1499 1502 1504 1506 1508 1510 1511 1512 1513 1514 1516 1517
1440 1436 1437 1440 1441 1444 1447 1450 1452 1453 1457 1470 1459 1461 1454 1436 1430 1425 1423 1429 1437 1443 1448 1454 1461 1467 1472 1477 1483 1487 1490 1493 1497 1500 1502 1504 1506 1507 1509 1510 1512 1513 1514 1515
1445 1437 1432 1434 1440 1442 1447 1460 1472 1475 1473 1466 1446 1449 1441 1425 1419 1420 1422 1428 1435 1440 1446 1453 1458 1464 1470 1476 1481 1485 1488 1492 1495 1498 1501 1503 1504 1506 1508 1510 1511 1513 1514 1514
1446 1444 1432 1431 1438 1443 1445 1453 1472 1478 1468 1451 1435 1440 1428 1418 1417 1420 1425 1430 1435 1440 1446 1452 1458 1465 1471 1476 1480 1484 1487 1490 1494 1497 1499 1501 1503 1506 1507 1509 1511 1512 1513 1512
1436 1433 1420 1422 1427 1436 1443 1445 1444 1455 1457 1461 1449 1435 1422 1416 1418 1421 1425 1430 1434 1439 1445 1452 1459 1466 1472 1477 1480 1483 1487 1490 1493 1496 1499 1501 1503 1505 1506 1508 1510 1511 1512 1512
1429 1434 1421 1413 1420 1426 1433 1437 1444 1453 1466 1469 1455 1444 1434 1424 1421 1421 1425 1430 1435 1439 1445 1452 1459 1467 1473 1476 1480 1483 1487 1490 1493 1496 1499 1501 1503 1504 1506 1507 1508 1509 1510 1510
1430 1439 1431 1420 1423 1428 1431 1437 1441 1444 1445 1458 1462 1448 1426 1428 1427 1429 1430 1432 1436 1441 1446 1453 1459 1466 1472 1477 1480 1484 1487 1491 1494 1497 1499 1501 1503 1505 1506 1507 1508 1509 1509 1509
1433 1437 1440 1429 1417 1417 1423 1428 1434 1450 1452 1448 1453 1448 1424 1426 1429 1433 1435 1436 1438 1442 1446 1453 1460 1466 1471 1476 1480 1484 1488 1491 1494 1497 1499 1501 1503 1505 1506 1507 1508 1508 1509 1509
1443 1443 1452 1445 1434 1424 1423 1423 1425 1430 1438 1446 1452 1446 1426 1429 1435 1439 1442 1444 1445 1448 1452 1457 1462 1467 1472 1476 1481 1485 1489 1492 1495 1497 1500 1502 1504 1505 1506 1507 1507 1508 1508 1508
1451 1449 1451 1451 1440 1435 1435 1429 1426 1430 1439 1442 1441 1438 1432 1436 1441 1444 1446 1449 1450 1453 1456 1460 1465 1469 1473 1477 1481 1485 1490 1493 1496 1498 1500 1502 1504 1505 1506 1506 1507 1507 1506 1506
1453 1453 1448 1442 1435 1434 1436 1435 1433 1435 1436 1442 1439 1439 1440 1443 1446 1448 1449 1451 1455 1458 1461 1463 1467 1470 1474 1478 1482 1486 1489 1493 1495 1498 1500 1502 1503 1504 1505 1505 1505 1505 1504 1503
1452 1456 1452 1448 1439 1436 1436 1434 1433 1435 1436 1437 1437 1441 1447 1450 1452 1454 1455 1458 1461 1463 1465 1467 1469 1472 1475 1479 1482 1486 1490 1493 1495 1498 1500 1502 1503 1504 1504 1504 1503 1503 1501 1500
1454 1457 1459 1456 1444 1441 1443 1435 1434 1433 1432 1437 1444 1452 1453 1456 1460 1463 1463 1464 1464 1466 1468 1470 1472 1475 1478 1481 1484 1488 1491 1494 1496 1499 1501 1502 1503 1503 1503 1502 1502 1501 1500 1498
1460 1461 1460 1457 1454 1461 1443 1433 1435 1438 1441 1445 1449 1454 1459 1464 1468 1470 1470 1470 1470 1470 1471 1473 1475 1478 1481 1485 1488 1491 1494 1496 1498 1500 1501 1502 1503 1503 1502 1501 1500 1499 1498 1497
1457 1462 1463 1461 1458 1450 1442 1444 1444 1446 1452 1456 1458 1460 1463 1466 1468 1474 1476 1475 1475 1475 1476 1477 1480 1482 1485 1489 1492 1494 1497 1498 1500 1501 1502 1502 1502 1502 1501 1500 1499 1498 1497 1496
1454 1458 1463 1460 1462 1461 1462 1454 1452 1454 1460 1467 1466 1466 1467 1466 1467 1480 1481 1480 1479 1480 1481 1482 1485 1487 1490 1493 1495 1497 1499 1500 1501 1502 1502 1502 1502 1502 1501 1500 1499 1498 1497 1495
1458 1458 1460 1459 1461 1457 1467 1459 1456 1463 1474 1473 1471 1470 1470 1472 1477 1483 1483 1483 1484 1485 1487 1488 1490 1493 1495 1497 1499 1500 1502 1503 1503 1503 1503 1502 1502 1502 1500 1500 1499 1498 1496 1494
1457 1460 1460 1460 1463 1471 1471 1466 1471 1477 1475 1474 1473 1472 1473 1476 1480 1483 1485 1487 1488 1490 1492 1494 1495 1497 1499 1501 1502 1503 1503 1504 1504 1504 1504 1503 1503 1503 1502 1500 1499 1498 1496 1494
1456 1459 1464 1468 1476 1478 1476 1477 1478 1477 1476 1475 1474 1474 1475 1478 1482 1485 1488 1491 1493 1495 1497 1498 1500 1502 1503 1504 1505 1505 1506 1506 1506 1505 1505 1504 1504 1503 1502 1501 1500 1498 1496 1494
1462 1461 1462 1467 1474 1477 1479 1480 1480 1478 1477 1476 1475 1475 1477 1480 1484 1488 1491 1495 1497 1499 1501 1503 1504 1505 1506 1507 1508 1508 1508 1508 1508 1507 1507 1506 1505 1504 1503 1502 1500 1498 1496 1494
1467 1465 1466 1470 1476 1478 1481 1482 1481 1479 1478 1477 1476 1478 1480 1483 1487 1491 1495 1498 1501 1504 1505 1507 1508 1509 1509 1510 1510 1510 1510 1510 1509 1509 1508 1507 1506 1505 1503 1502 1500 1499 1496 1494
1470 1471 1472 1477 1481 1482 1485 1484 1483 1482 1481 1481 1481 1483 1486 1488 1492 1495 1499 1502 1505 1507 1509 1510 1511 1512 1512 1513 1512 1512 1512 1512 1511 1510 1509 1509 1508 1506 1504 1503 1501 1499 1497 1495